Flag for Germany Weather past 2 weeks in Alsfeld, Hesse, Germany

Now
60 °F

Passing clouds.


Feels Like: 60 °F
Forecast: 52 / 78 °F
Wind: 2 mph from Northwest

Location: Fritzlar

Current Time: Aug 5, 2015 at 12:20:10 AM

Latest Report: Aug 5, 2015 at 12:00 AM


Visibility: 16 mi

Pressure: 30.09 "Hg

Humidity: 87%

Dew point: 56 °F

Location of AlsfeldLocation

Historic Weather in Alsfeld — Graph

°F

Alsfeld temperature yesterday

Maximum temperature yesterday: 87 °F (at 12:00 PM)
Minimum temperature yesterday: 58 °F (at 7:00 AM)
Average temperature yesterday: 69 °F

Past Weeks' High & Low Weather Summary

 TemperatureHumidityPressure
High88 °F (Aug 3, 4:00 PM)98% (Jul 21, 1:00 AM)30.15 "Hg (Jul 21, 1:00 AM)
Low45 °F (Jul 31, 5:00 AM)27% (Aug 2, 6:00 PM)29.58 "Hg (Jul 25, 10:00 AM)
Average65 °F66%29.91 "Hg
* Reported Jul 20 11:00 PM — Aug 4 11:00 PM, Alsfeld, Weather by CustomWeather, © 2015

Note: Actual official high and low records may vary slightly from our data, if they occured in-between our weather recording intervals... More about our weather records

Advertising

Alsfeld weather history for previous 24 hours

 ConditionsComfort  
Time TempWeatherWind HumidityBarometerVisibility
11:00 PM
Tue, Aug 4
63 °FOvercast.2 mph82%30.07 "Hg16 mi
10:00 PM64 °FOvercast.6 mph81%30.04 "Hg16 mi
9:00 PM66 °FOvercast.6 mph84%30.01 "Hg16 mi
8:00 PM68 °FSprinkles. Overcast.2 mph90%29.98 "Hg7 mi
7:00 PM69 °FOvercast.3 mph83%29.96 "Hg19 mi
6:00 PM68 °FOvercast.5 mph84%29.97 "Hg25 mi
5:00 PM67 °FLight rain. Overcast.2 mph87%29.98 "Hg25 mi
4:00 PM76 °FOvercast.8 mph53%29.94 "Hg6 mi
3:00 PM79 °FOvercast.10 mph46%29.89 "Hg25 mi
2:00 PM82 °FOvercast.8 mph43%29.86 "Hg25 mi
1:00 PM85 °FOvercast.10 mph37%29.85 "Hg25 mi
12:00 PM87 °FOvercast.7 mph37%29.83 "Hg25 mi
11:00 AM82 °FOvercast.5 mph45%29.85 "Hg19 mi
10:00 AM76 °FOvercast.2 mph53%29.87 "Hg19 mi
9:00 AM72 °FPartly sunny.N/A65%29.89 "Hg16 mi
8:00 AM64 °FPartly sunny.1 mph77%29.90 "Hg16 mi
7:00 AM58 °FScattered clouds.2 mph89%29.93 "Hg16 mi
5:00 AM59 °FPassing clouds.3 mph85%29.94 "Hg19 mi
4:00 AM59 °FPassing clouds.2 mph85%29.95 "Hg19 mi
3:00 AM60 °FPassing clouds.2 mph84%29.96 "Hg19 mi
2:00 AM63 °FPassing clouds.3 mph75%29.96 "Hg19 mi
1:00 AM63 °FPassing clouds.1 mph78%29.97 "Hg19 mi
12:00 AM66 °FPassing clouds.2 mph71%29.97 "Hg19 mi
Weather by CustomWeather, © 2015

See weather overviewHow to use our weather pages